Weather History for KLHQ - May, 2014

Change the Weather History Date:

Thursday, May 29, 2014

  Actual Average Record
Temperature  
Mean Temperature 72 °F -  
Max Temperature 82 °F 75 °F 92 °F (1941)
Min Temperature 64 °F 51 °F 35 °F (1936)
Cooling Degree Days 7    
Growing Degree Days 22 (Base 50)    
Moisture  
Dew Point 63 °F    
Average Humidity 78    
Maximum Humidity 94    
Minimum Humidity 56    
Precipitation  
Precipitation 0.00 in - - ()
Sea Level Pressure  
Sea Level Pressure 30.05 in    
Wind  
Wind Speed 2 mph (NE)    
Max Wind Speed 9 mph    
Max Gust Speed -    
Visibility 7 miles    
Events      
Averages and records for this station are not official NWS values.
T = Trace of Precipitation, MM = Missing Value Source: NWS Daily Summary

Daily Weather History Graph

Daily Weather History Graph

Search for Another Location

Airport or City:

Trip Planner

Search our weather history database for the weather conditions in past years. The results will help you decide how hot, cold, wet, or windy it might be!

Date:

Astronomy

May. 29, 2014 Rise Set
Actual Time 6:05 AM EDT 8:50 PM EDT
Civil Twilight 5:34 AM EDT 9:22 PM EDT
Nautical Twilight 4:54 AM EDT 10:02 PM EDT
Astronomical Twilight 4:09 AM EDT 10:47 PM EDT
Moon 6:58 AM EDT (5/29) 9:39 PM EDT (5/29)
Length of Visible Light 15h 48m
Length of Day
14h 44m
New Moon, 1% of the Moon is Illuminated
May 29
New Moon
Jun 5
First Quarter
Jun 13
Full
Jun 19
Last Quarter
Jun 27
New

Hourly Weather History & Observations

Time (EDT) Temp. Heat Index Dew Point Humidity Pressure Visibility Wind Dir Wind Speed Gust Speed Precip Events Conditions
12:53 AM 66.9 °F - 64.0 °F 90% 30.02 in 9.0 mi Calm Calm - N/A   Partly Cloudy
2:53 AM 64.9 °F - 63.0 °F 93% 30.00 in 6.0 mi Calm Calm - N/A   Partly Cloudy
5:53 AM 64.9 °F - 62.1 °F 90% 30.01 in 3.0 mi NNE 3.5 mph - N/A   Mostly Cloudy
6:25 AM 64.0 °F - 62.1 °F 93% 30.04 in 2.5 mi NNE 3.5 mph - N/A   Partly Cloudy
6:34 AM 64.9 °F - 63.0 °F 93% 30.04 in 2.0 mi NE 3.5 mph - N/A   Clear
6:51 AM 64.4 °F - 62.6 °F 94% 30.04 in 2.5 mi Calm Calm - N/A   Mostly Cloudy
6:53 AM 64.9 °F - 63.0 °F 93% 30.03 in 2.5 mi Calm Calm - N/A   Mostly Cloudy
7:01 AM 66.0 °F - 63.0 °F 90% 30.04 in 3.0 mi Calm Calm - N/A   Mostly Cloudy
7:12 AM 66.0 °F - 63.0 °F 90% 30.05 in 3.0 mi Calm Calm - N/A   Overcast
7:53 AM 66.0 °F - 63.0 °F 90% 30.04 in 4.0 mi Calm Calm - N/A   Overcast
8:08 AM 66.0 °F - 63.0 °F 90% 30.06 in 4.0 mi East 3.5 mph - N/A   Overcast
8:20 AM 66.0 °F - 63.0 °F 90% 30.07 in 4.0 mi Calm Calm - N/A   Overcast
8:48 AM 66.2 °F - 62.6 °F 88% 30.07 in 4.0 mi ENE 3.5 mph - N/A   Overcast
8:53 AM 66.9 °F - 64.0 °F 90% 30.06 in 4.0 mi ENE 3.5 mph - N/A   Mostly Cloudy
9:32 AM 68.0 °F - 64.0 °F 87% 30.08 in 5.0 mi Calm Calm - N/A   Mostly Cloudy
9:53 AM 69.1 °F - 64.0 °F 84% 30.07 in 5.0 mi NE 3.5 mph - N/A   Haze
10:03 AM 70.0 °F - 64.0 °F 81% 30.08 in 5.0 mi Calm Calm - N/A   Haze
10:12 AM 70.0 °F - 64.0 °F 81% 30.08 in 6.0 mi Calm Calm - N/A   Haze
10:53 AM 72.0 °F - 64.9 °F 78% 30.07 in 8.0 mi Calm Calm - N/A   Partly Cloudy
11:53 AM 75.0 °F - 64.0 °F 69% 30.08 in 10.0 mi Variable 3.5 mph - N/A   Clear
12:53 PM 78.1 °F - 64.0 °F 62% 30.08 in 10.0 mi NNE 6.9 mph - N/A   Scattered Clouds
1:27 PM 79.0 °F - 64.0 °F 60% 30.09 in 10.0 mi NNE 3.5 mph - N/A   Mostly Cloudy
1:53 PM 79.0 °F - 64.9 °F 62% 30.06 in 10.0 mi NNE 9.2 mph - N/A   Mostly Cloudy
2:00 PM 79.0 °F - 64.9 °F 62% 30.07 in 10.0 mi NE 9.2 mph - N/A   Mostly Cloudy
2:53 PM 80.1 °F 81.7 °F 64.0 °F 58% 30.03 in 10.0 mi ENE 4.6 mph - N/A   Scattered Clouds
3:53 PM 80.1 °F 81.7 °F 64.0 °F 58% 30.04 in 10.0 mi NNE 8.1 mph - N/A   Mostly Cloudy
6:53 PM 80.1 °F 81.5 °F 63.0 °F 56% 30.00 in 10.0 mi Calm Calm - N/A   Clear
7:53 PM 78.1 °F - 63.0 °F 60% 30.02 in 10.0 mi ENE 6.9 mph - N/A   Mostly Cloudy
8:53 PM 75.9 °F - 64.9 °F 69% 30.03 in 10.0 mi Calm Calm - N/A   Overcast
9:53 PM 72.0 °F - 63.0 °F 73% 30.06 in 10.0 mi Calm Calm - N/A   Mostly Cloudy
10:53 PM 70.0 °F - 59.0 °F 68% 30.08 in 10.0 mi NE 9.2 mph - N/A   Partly Cloudy
11:53 PM 66.0 °F - 54.0 °F 65% 30.10 in 10.0 mi North 4.6 mph - N/A   Partly Cloudy